Content
SEND FEEDBACK

Daily
Averages
Monthly
Summary
United States of America

ROCKTON, PENNSYLVANIA


Home > North America > United States > Pennsylvania
Elevation: 556 meters     Latitude: 41 06N     Longitude: 078 38W

WEATHER
 
SELECT A DAY
Number of Records: 181,626;   Date Range: 1/26/00 - 8/30/14
 
SHARE

PRINT THIS DATA

[ ← Previous Day ]
WEATHER ALMANAC - 31 JANUARY, 2013
[ Next Day → ]
[ °F ]   °C
Weather ElementAverageHighLow
Temperature-2.9 °C8.9 °C (12:54 am)-7 °C (5:02 pm)
Dewpoint-6.8 °C6.7 °C (12:54 am)-12.2 °C (11:54 pm)
Humidity75.4 %93 % (8:18 am)54 % (12:09 pm)
Barometer999.7 hPa1009.5 hPa (11:54 pm)987.1 hPa (1:54 am)
Wind Speed26.7 km/h48.1 km/h (2:16 am)
Wind Gust70.3 km/h (2:16 am)
Weather ElementAverage
Visibility6.3 km
Wind DirectionWSW (255.5 °)

Weather ElementTotal
Precipitation7.87 mm
Heating Degree Days17.4 (Base 18.3)
Averaged from 69 records on 31 January, 2013
WEATHER CONDITIONS BREAKOUT
WIND DIRECTION BREAKOUT
WEATHER BY HOUR - 31 JANUARY, 2013
[ °F ]   °C
Local TimeTemperatureDewpointHumidityBarometerVisibilityWind DirectionWind SpeedGust SpeedPrecipitationEventsConditions
12:54 AM8.9 °C6.7 °C86 %988.8 hPa16.1 kmWSW (240°)29.6 km/h48.1 km/h1.27 mmRainLight Rain
1:54 AM7.2 °C5 °C86 %987.1 hPa16.1 kmSSW (210°)20.4 km/h29.6 km/h1.52 mmRainLight Rain
2:16 AM6 °C3 °C81 %989.5 hPa8 kmWSW (250°)48.1 km/h70.3 km/h0.76 mmRainRain
2:54 AM2.8 °C0.6 °C86 %990.5 hPa16.1 kmWSW (250°)33.3 km/h48.1 km/h0.76 mmRainLight Rain
3:07 AM2 °C0 °C87 %990.2 hPa16.1 kmWSW (250°)31.5 km/h48.1 km/h0 mmRainLight Rain
3:49 AM1 °C-1 °C87 %990.9 hPa3.2 kmWest (260°)33.3 km/h48.1 km/h0 mmSnowLight Snow
3:54 AM0.6 °C-0.6 °C92 %991.5 hPa1.6 kmWest (270°)22.2 km/h48.1 km/h0.25 mmSnowLight Snow
3:56 AM1 °C-1 °C87 %990.9 hPa1.6 kmWest (270°)31.5 km/h48.1 km/h0 mmSnowLight Snow
4:06 AM1 °C-1 °C87 %991.5 hPa3.2 kmWest (260°)29.6 km/h55.5 km/h0 mmSnowLight Snow
4:15 AM1 °C-2 °C81 %991.5 hPa11.3 kmWest (270°)35.2 km/h53.8 km/h0 mmSnowLight Snow
4:34 AM1 °C-3 °C75 %991.9 hPa16.1 kmWest (260°)25.9 km/h53.8 km/h0 mmMostly Cloudy
4:54 AM0.6 °C-2.8 °C78 %992.6 hPa16.1 kmWSW (240°)22.2 km/h38.9 km/h0 mmOvercast
5:28 AM0 °C-4 °C75 %993.2 hPa14.5 kmWest (270°)22.2 km/h57.5 km/h0 mmOvercast
5:42 AM0 °C-4 °C75 %993.6 hPa16.1 kmWest (270°)20.4 km/h35.2 km/h0 mmOvercast
5:54 AM0 °C-4.4 °C73 %994.2 hPa16.1 kmWSW (250°)14.8 km/h42.6 km/h0 mmOvercast
6:28 AM-1 °C-6 °C69 %994.6 hPa16.1 kmWSW (250°)42.6 km/h64.9 km/h0.25 mmOvercast
6:54 AM-0.6 °C-6.1 °C67 %995.9 hPa14.5 kmWest (260°)20.4 km/h48.1 km/h0.25 mmOvercast
7:54 AM-1.7 °C-5.6 °C75 %997.6 hPa2.4 kmWest (270°)20.4 km/h44.4 km/h0 mmSnowLight Snow
7:57 AM-2 °C-6 °C74 %997 hPa1.3 kmWest (260°)35.2 km/h61.2 km/h0 mmSnowLight Snow
8:18 AM-3 °C-4 °C93 %997.6 hPa0.3 kmWSW (240°)31.5 km/h42.6 km/h0 mmFog-SnowHeavy Snow
8:29 AM-3 °C-4 °C93 %997.6 hPa0.3 kmWest (260°)31.5 km/h51.8 km/h0.25 mmFog-SnowHeavy Snow
8:34 AM-3 °C-6 °C80 %997.6 hPa0.8 kmWest (260°)22.2 km/h53.8 km/h0.25 mmSnowSnow
8:38 AM-3 °C-6 °C80 %998 hPa4 kmWSW (250°)24.1 km/h53.8 km/h0.25 mmSnowLight Snow
8:41 AM-3 °C-6 °C80 %998 hPa12.9 kmWSW (240°)22.2 km/h38.9 km/h0.25 mmMostly Cloudy
8:54 AM-2.2 °C-6.1 °C75 %999 hPa14.5 kmWSW (240°)25.9 km/h37 km/h0.25 mmSnowLight Snow
9:03 AM-3 °C-6 °C80 %998.3 hPa2.9 kmWSW (240°)29.6 km/h42.6 km/h0 mmSnowLight Snow
9:21 AM-3 °C-6 °C80 %998.3 hPa0.8 kmWSW (250°)25.9 km/h46.3 km/h0 mmSnowSnow
9:27 AM-3 °C-5 °C86 %998.6 hPa0.3 kmWSW (250°)25.9 km/h44.4 km/h0 mmFog-SnowHeavy Snow
9:54 AM-3.9 °C-5 °C92 %1000 hPa0.3 kmWSW (250°)29.6 km/h40.7 km/h0.76 mmFog-SnowHeavy Snow
10:01 AM-4 °C-5 °C93 %999 hPa0.3 kmWest (260°)16.7 km/h38.9 km/h0 mmFog-SnowSnow
10:12 AM-3 °C-6 °C80 %999.3 hPa1.6 kmWSW (250°)24.1 km/h35.2 km/h0 mmSnowLight Snow
10:17 AM-3 °C-7 °C74 %999.3 hPa4.8 kmWSW (250°)22.2 km/h40.7 km/h0 mmSnowLight Snow
10:23 AM-3 °C-7 °C74 %999.3 hPa3.2 kmWSW (240°)22.2 km/h44.4 km/h0 mmSnowLight Snow
10:30 AM-3 °C-7 °C74 %999.7 hPa2.4 kmWSW (250°)18.5 km/h46.3 km/h0 mmSnowLight Snow
10:40 AM-3 °C-8 °C69 %999.7 hPa3.2 kmWest (260°)37 km/h57.5 km/h0.25 mmSnowLight Snow
10:43 AM-3 °C-9 °C64 %999.7 hPa2.9 kmWSW (250°)37 km/h64.9 km/h0.25 mmSnowLight Snow
10:54 AM-3.3 °C-9.4 °C63 %1000.7 hPa1.6 kmWest (270°)35.2 km/h62.9 km/h0.25 mmSnowLight Snow
11:00 AM-3 °C-9 °C64 %1000 hPa4.8 kmWest (260°)27.8 km/h51.8 km/h0 mmOvercast
11:54 AM-4.4 °C-10.6 °C62 %1002 hPa3.2 kmWest (260°)29.6 km/h57.5 km/h0 mmSnowLight Snow
12:09 PM-4 °C-12 °C54 %1001.4 hPa6.4 kmWest (260°)38.9 km/h59.2 km/h0 mmOvercast
1:32 PM-4 °C-10 °C64 %1001.7 hPa2.9 kmWSW (250°)37 km/h53.8 km/h0 mmSnowLight Snow
1:39 PM-4 °C-9 °C69 %1002 hPa1.9 kmWest (260°)24.1 km/h53.8 km/h0 mmSnowLight Snow
1:54 PM-4.4 °C-8.9 °C71 %1003 hPa2.9 kmWSW (250°)22.2 km/h38.9 km/h0 mmSnowLight Snow
2:04 PM-4 °C-9 °C69 %1001.7 hPa4.8 kmWSW (250°)14.8 km/h0 mmSnowLight Snow
2:18 PM-4 °C-9 °C69 %1002 hPa2.9 kmWest (260°)29.6 km/h44.4 km/h0 mmSnowLight Snow
2:29 PM-5 °C-8 °C80 %1002 hPa0.8 kmWest (260°)24.1 km/h50.1 km/h0 mmSnowSnow
2:32 PM-5 °C-8 °C80 %1002 hPa0.3 kmWSW (250°)20.4 km/h37 km/h0 mmSnowHeavy Snow
2:51 PM-5 °C-8 °C80 %1002.4 hPa1.6 kmWSW (250°)33.3 km/h50.1 km/h0 mmSnowLight Snow
2:54 PM-4.4 °C-8.9 °C71 %1003.7 hPa1.9 kmWest (260°)24.1 km/h50.1 km/h0 mmSnowLight Snow
2:59 PM-4 °C-9 °C69 %1002.4 hPa4.8 kmWest (270°)31.5 km/h50.1 km/h0 mmSnowLight Snow
3:14 PM-5 °C-10 °C68 %1003 hPa0.8 kmWest (270°)29.6 km/h61.2 km/h0 mmSnowSnow
3:25 PM-5 °C-10 °C68 %1003.4 hPa3.2 kmWest (270°)33.3 km/h50.1 km/h0 mmSnowLight Snow
3:54 PM-6.1 °C-10 °C74 %1006.1 hPa1.3 kmWest (270°)31.5 km/h48.1 km/h0 mmSnowLight Snow
4:06 PM-6 °C-11 °C68 %1004.4 hPa3.2 kmWest (270°)29.6 km/h48.1 km/h0 mmSnowLight Snow
4:13 PM-6 °C-11 °C68 %1004.4 hPa6.4 kmWest (260°)18.5 km/h46.3 km/h0 mmSnowLight Snow
4:20 PM-6 °C-12 °C63 %1004.4 hPa12.9 kmWest (270°)25.9 km/h46.3 km/h0 mmOvercast
4:49 PM-6 °C-11 °C68 %1005.1 hPa3.2 kmWest (270°)25.9 km/h38.9 km/h0 mmSnowLight Snow
4:54 PM-6.7 °C-10.6 °C74 %1007.1 hPa1.6 kmWSW (240°)25.9 km/h48.1 km/h0 mmSnowLight Snow
5:02 PM-7 °C-10 °C80 %1005.4 hPa0.8 kmWSW (250°)25.9 km/h48.1 km/h0 mmSnowSnow
5:20 PM-7 °C-10 °C80 %1005.8 hPa3.2 kmWest (260°)27.8 km/h44.4 km/h0 mmSnowLight Snow
5:27 PM-7 °C-11 °C74 %1005.8 hPa2.9 kmWest (260°)33.3 km/h55.5 km/h0 mmSnowLight Snow
5:34 PM-6 °C-12 °C63 %1006.1 hPa4.8 kmWest (260°)22.2 km/h55.5 km/h0 mmOvercast
5:54 PM-6.7 °C-11.7 °C68 %1008.1 hPa11.3 kmWSW (250°)24.1 km/h42.6 km/h0 mmSnowLight Snow
6:31 PM-7 °C-11 °C74 %1006.4 hPa6.4 kmWest (260°)18.5 km/h31.5 km/h0 mmSnowLight Snow
6:54 PM-6.7 °C-11.1 °C71 %1008.5 hPa14.5 kmWSW (250°)24.1 km/h33.3 km/h0 mmOvercast
8:03 PM-7 °C-11 °C74 %1006.8 hPa6.4 kmWSW (240°)13 km/h0 mmSnowLight Snow
8:37 PM-7 °C-10 °C80 %1006.4 hPa16.1 kmWSW (240°)14.8 km/h0 mmOvercast
9:54 PM-6.1 °C-10.6 °C71 %1008.8 hPa16.1 kmWest (260°)20.4 km/h33.3 km/h0 mmOvercast
11:54 PM-6.7 °C-12.2 °C65 %1009.5 hPa16.1 kmWest (270°)20.4 km/h35.2 km/hOvercast
Hourly data recorded from KFIG, located 0 kilometers away from Rockton, Pennsylvania







STORIES FROM OUR PARTNERS